Cloud_Cover
0 0 0 0 0 0 0 0 0 43 100 100 63 61 52 15 0 0 0 0 0 0 0 0 0 0 0 0 0 0 0 0 0 0 0 0 0 0 0 6 16 68 4 0
0 0 0 0 0 0 0 0 0 87 46 98 78 96 100 84 3 0 0 0 0 0 0 0 0 0 0 0 0 0 0 0 0 0 0 0 0 0 0 12 44 2 32 14
0 0 0 0 0 0 0 0 0 51 91 100 79 45 5 4 0 0 0 0 0 0 0 0 0 0 0 0 0 0 0 0 0 0 0 0 0 0 41 40 62 83 16 0
0 0 0 0 0 0 0 0 0 9 41 91 97 44 90 5 0 3 0 0 0 0 0 0 0 0 0 0 0 0 0 0 0 0 0 0 0 0 0 43 66 0 0 0
0 0 0 0 4 0 0 0 0 0 27 47 100 90 98 5 5 5 5 0 0 0 0 0 0 0 0 0 0 0 0 0 0 0 0 0 0 0 0 0 0 0 0 0
0 0 0 0 0 0 0 0 0 0 13 63 2 98 91 77 31 15 4 5 1 0 0 0 0 0 0 0 0 0 0 0 0 0 0 0 0 0 0 0 0 0 0 0
0 0 0 0 0 0 5 0 0 0 1 0 5 5 0 70 47 3 33 57 18 2 0 0 0 1 0 0 0 0 0 0 0 0 0 0 0 0 0 0 0 0 0 0
0 0 0 0 0 0 0 0 0 0 0 0 0 2 0 28 39 97 16 100 20 23 80 0 5 5 0 0 0 0 0 0 0 0 0 0 0 0 0 0 0 0 0 0
0 0 0 0 0 0 0 0 11 0 0 0 0 0 0 0 1 16 5 31 68 90 98 5 5 0 0 0 0 0 0 0 0 0 0 0 0 0 0 0 0 0 0 0
0 0 0 0 0 0 0 0 0 0 0 0 0 0 0 3 18 4 2 31 100 100 86 87 5 0 0 0 0 0 0 0 0 0 0 0 0 0 0 0 0 0 0 0
0 0 0 0 0 0 0 0 0 0 0 0 0 0 0 4 52 81 44 52 81 39 88 78 2 3 0 0 0 0 0 0 0 0 0 0 0 0 0 0 0 0 0 0
0 0 0 0 0 0 0 0 0 0 0 0 0 2 3 21 82 64 27 99 96 78 7 0 0 0 0 0 0 0 0 0 0 0 0 0 0 0 0 0 0 0 0 0
3 0 3 5 0 0 0 0 0 0 0 0 0 40 100 10 53 6 31 43 39 99 100 4 5 3 0 0 0 0 0 0 0 0 0 0 0 0 0 0 0 0 0 0
85 0 0 1 2 0 0 0 0 0 0 0 0 0 97 100 91 100 27 74 100 99 100 91 16 5 4 0 0 0 0 0 0 0 0 0 0 0 0 0 0 0 0 0
52 1 0 0 0 0 0 0 2 0 0 0 0 0 0 15 100 37 35 90 97 100 29 27 17 5 1 0 3 0 0 0 0 0 0 0 0 0 0 0 0 0 0 0
43 0 0 0 0 0 0 0 0 0 0 0 0 0 0 0 84 100 39 39 70 100 50 100 95 58 0 0 0 0 0 0 0 0 0 0 0 0 0 0 0 5 0 0
97 5 32 0 4 5 2 0 0 5 2 0 0 0 0 0 0 68 100 73 20 97 70 86 98 23 0 0 1 3 0 0 0 0 0 0 1 2 0 0 0 0 2 5
100 96 76 5 59 92 0 2 0 0 21 25 0 0 0 0 0 2 94 98 5 31 89 100 100 100 86 4 0 5 70 9 3 4 5 5 5 5 0 0 2 5 5 5
100 100 100 90 76 2 0 0 0 28 11 69 2 3 0 0 0 0 0 94 46 1 36 87 100 100 100 71 0 3 1 6 5 47 20 5 5 5 5 5 6 5 5 8
100 100 100 100 68 1 0 5 37 100 67 5 5 0 0 0 0 0 0 0 4 95 8 5 96 75 4 29 13 5 2 2 4 5 5 5 5 5 5 5 5 2 0 7
100 100 100 91 8 4 0 7 100 100 0 0 0 1 10 0 0 0 0 0 0 0 2 0 3 3 41 63 70 5 5 74 48 5 0 2 5 4 0 0 0 0 41 98
100 100 100 87 13 88 22 100 100 33 3 6 36 9 0 2 5 4 0 0 0 0 0 0 2 40 4 1 0 0 2 14 6 58 8 5 36 5 5 5 4 31 100 91
100 100 100 100 100 99 98 100 36 26 5 83 5 14 5 70 20 0 0 0 0 0 0 0 0 19 5 12 61 0 0 0 0 0 0 0 5 6 10 29 63 99 100 100
100 100 100 100 37 12 48 100 35 5 69 43 9 59 100 100 92 0 0 0 0 0 0 0 0 0 0 94 100 5 0 0 3 6 30 35 95 69 68 92 100 100 69 42
100 100 100 100 95 100 92 78 84 84 100 100 100 100 69 19 4 2 0 0 0 0 0 19 6 0 2 0 40 100 4 3 70 77 75 88 99 100 93 100 98 97 99 96
100 100 100 100 100 95 100 84 91 100 100 100 100 100 81 7 13 6 0 0 0 4 86 100 91 75 2 1 47 45 2 0 28 66 100 96 100 100 99 100 100 100 100 100